Location: San Martino del Lago
(45.0667°N, 10.3000°E)
Time: 04:51:22
(UTC+00:00)

Daily predictions for brighter satellites

Satellite Brightness Start Highest point End
(mag) Time Altitude Azimuth Time Altitude Azimuth Time Altitude Azimuth
BREEZE-M R/B 3.8 00:04:50 52° ENE 00:04:50 52° ENE 00:10:13 10° E
Cosmos 1066 Rocket 4.4 00:06:18 61° ESE 00:06:45 64° E 00:12:26 10° NNE
SeaSat 1 3.5 00:02:56 10° NNE 00:07:27 36° NW 00:08:06 35° WNW
Sich 1 Rocket 4.2 00:03:02 10° N 00:07:12 54° ENE 00:07:12 54° ENE
USA 215 4.0 00:10:10 35° W 00:10:10 35° W 00:14:43 10° WNW
Cosmos 1943 Rocket 2.8 00:09:25 44° W 00:10:10 47° WNW 00:15:36 10° NNE
Cosmos 1607 4.1 00:11:32 57° SE 00:12:05 59° ESE 00:18:27 10° NE
ATLAS 2AS CENTAUR R/B 3.2 00:05:32 10° NW 00:11:46 41° WSW 00:11:46 41° WSW
Cosmos 1356 Rocket 4.1 00:08:40 10° N 00:11:59 53° N 00:11:59 53° N
Cosmos 2298 Rocket 4.0 00:13:51 78° E 00:13:51 78° E 00:19:05 10° NNE
Cosmos 1461 3.4 00:15:16 66° NNE 00:15:16 66° NNE 00:19:19 10° NE
Cosmos 2239 Rocket 4.4 00:09:15 10° NNW 00:15:33 76° W 00:16:15 68° SW
EO 1 Delta rocket 4.3 00:22:19 55° WNW 00:22:19 55° WNW 00:27:03 10° NNW
SL-16 R/B 3.3 00:21:04 27° SE 00:24:14 50° ENE 00:30:15 10° N
Cosmos 1833 4.2 00:19:16 10° NNW 00:25:03 78° ENE 00:26:12 58° SE
Meteor 1-15 Rocket 4.2 00:20:47 10° N 00:26:26 78° E 00:27:18 64° SE
Cosmos 1048 Rocket 3.9 00:21:07 10° NNW 00:26:21 78° W 00:26:21 78° W
Okean 1-7 4.4 00:29:25 29° NW 00:29:25 29° NW 00:32:28 10° N
Cosmos 2151 Rocket 3.9 00:32:19 10° N 00:36:50 60° E 00:36:57 60° E
Okean 2 Rocket 3.2 00:33:06 10° N 00:37:10 72° NNE 00:37:10 72° NNE
Cosmos 1674 Rocket 4.4 00:37:44 42° E 00:37:52 42° E 00:42:04 10° NNE
Gbstr 26 Del rocket 3.6 00:31:16 10° WNW 00:37:53 87° NNE 00:43:08 10° ESE
BREEZE-M DEB (TANK) 4.1 00:39:13 47° SE 00:39:26 47° SE 00:50:01 10° ENE
Helios 1A 3.9 00:41:18 38° NW 00:41:18 38° NW 00:44:11 10° NNW
Okean 3 4.4 00:41:55 40° NW 00:41:55 40° NW 00:45:20 10° N
Cosmos 2344 4.4 00:33:22 10° NW 00:42:46 87° NE 00:56:01 10° SE
Cosmos 1656 Rocket 3.5 00:42:15 65° WSW 00:42:50 72° WNW 00:48:22 10° NNE
Cosmos 1339 Rocket 4.5 00:43:46 56° S 00:45:16 90° W 00:51:43 10° N
Cosmos 2150 Rocket 4.1 00:45:19 59° W 00:45:52 62° WNW 00:51:11 10° NNE
Helios 1B rocket 3.0 00:42:38 10° NNE 00:46:30 51° E 00:46:30 51° E
ISS -2.0 00:48:19 31° NE 00:48:19 31° NE 00:50:14 10° ENE
Cosmos 1934 Rocket 4.0 00:45:40 10° NNW 00:51:42 59° W 00:52:36 53° SW
Cosmos 1867 3.5 00:52:08 65° WSW 00:52:55 80° NW 00:58:26 10° NNE
RESURS DK-1 3.1 00:49:34 10° NNW 00:52:34 45° NW 00:52:34 45° NW
UNK 3.9 00:53:30 57° SE 00:54:15 68° ENE 00:58:50 10° N
Cosmos 1727 Rocket 4.3 00:54:28 38° SSE 00:56:50 60° E 01:03:04 10° NNE
CZ-2D R/B 2.2 00:51:45 10° NNE 00:57:12 73° ESE 00:58:21 55° SSE
COSMOS 2487 3.7 00:57:53 10° N 01:01:05 36° ENE 01:01:12 36° ENE
ATLAS CENTAUR R/B 1.6 01:02:36 57° NE 01:02:36 57° NE 01:05:44 10° NE
Cosmos 1300 Rocket 4.3 00:58:41 10° NNW 01:02:12 40° WNW 01:02:12 40° WNW
Cosmos 2221 Rocket 4.0 01:08:51 49° W 01:08:54 49° WNW 01:13:21 10° N
USA 281 3.5 01:09:03 43° SW 01:10:00 46° WSW 01:16:18 10° NW
USA 81 4.2 01:09:15 10° NNW 01:14:22 51° W 01:14:57 49° WSW
Cosmos 1707 3.4 01:20:58 42° ESE 01:21:34 47° E 01:25:16 10° NNE
Meteor 2-10 4.0 01:19:29 10° NNW 01:25:01 86° W 01:27:05 39° S
Meteor 1-21 4.4 01:23:32 36° S 01:25:58 73° E 01:31:48 10° NNE
Cosmos 1315 Rocket 4.3 01:22:30 10° N 01:26:07 33° ENE 01:28:56 15° SE
Cosmos 1125 Rocket 4.4 01:24:54 32° W 01:26:10 36° WNW 01:31:00 10° N
IDEFIX/ARIANE 42P 3.9 01:25:02 10° NNE 01:29:50 34° E 01:33:19 17° SSE
Cosmos 1400 Rocket 2.7 01:26:42 10° NNW 01:30:49 67° W 01:31:01 65° WSW
Resurs 1-4 Rocket 2.3 01:26:09 10° N 01:31:17 57° WNW 01:32:44 42° WSW
Cosmos 2369 Rocket 3.9 01:31:09 17° W 01:33:43 22° NW 01:38:06 10° N
ADEOS II 2.2 01:28:39 10° NNE 01:33:55 72° ESE 01:36:09 35° S
Cosmos 1975 Rocket 3.9 01:36:21 26° SSE 01:38:23 46° E 01:42:35 10° NNE
Meteor 2-20 Rocket 4.4 01:39:37 34° SSW 01:42:29 80° W 01:48:42 10° N
CZ-3B R/B 4.1 01:28:48 22° SW 01:43:12 88° NW 01:48:27 10° NE
SL-19 R/B 4.3 01:37:36 10° N 01:43:22 66° WNW 01:45:37 36° SW
Tianhe-1 2.5 01:46:44 28° SE 01:46:44 28° SE 01:48:34 10° ESE
ARGOS Delta rocket 3.6 01:41:28 10° N 01:45:58 79° WNW 01:47:33 41° SSW
Gblst 52 Del rocket 4.3 01:40:12 10° WNW 01:46:10 53° SW 01:51:34 10° SE
Lacrosse 5 2.5 01:45:07 33° S 01:46:52 46° SE 01:51:43 10° ENE
Cosmos 1470 2.9 01:46:19 10° NNW 01:50:06 51° W 01:50:26 49° WSW
Cosmos 1378 Rocket 4.2 01:51:11 35° W 01:51:53 37° WNW 01:55:56 10° N
Cosmos 2016 Rocket 4.3 01:46:59 10° N 01:53:17 68° E 01:59:28 10° SSE
BREEZE-M DEB (TANK) 3.7 01:53:33 31° SSW 01:55:56 57° SE 02:09:58 10° ENE
Cosmos 1459 Rocket 3.9 01:49:57 10° N 01:56:17 80° W 02:01:05 18° S
NOSS 2-1 (E) 4.3 01:51:29 10° NW 01:56:41 77° SW 02:04:07 10° SSE
Cosmos 2251 Rocket 4.2 01:52:12 10° NNW 01:57:23 56° ENE 02:02:31 10° SE
Okean 1 Rocket 3.6 01:55:34 10° NNW 01:59:39 37° W 02:00:21 35° WSW
Cosmos 1269 Rocket 4.5 01:55:08 10° NW 02:00:03 40° WSW 02:01:41 32° SW
IRS-1D 3.6 01:56:05 10° NNE 02:01:25 80° WNW 02:04:22 28° SSW
Cosmos 2173 Rocket 3.9 01:55:55 10° NNW 02:02:02 71° W 02:06:41 18° S
CZ-4B R/B 4.4 01:58:38 10° NNE 02:03:20 44° E 02:07:41 12° S
Cosmos 1726 2.6 02:00:53 10° NNW 02:04:20 38° W 02:04:34 37° WSW
Cosmos 1697 Rocket 4.4 02:01:05 10° SSE 02:05:42 27° ESE 02:10:19 10° NE
Cosmos 44 Rocket 3.5 02:00:46 10° NW 02:05:51 53° WSW 02:10:48 10° SSE
COSMOS 2455 3.1 02:00:58 10° NNW 02:07:01 73° ENE 02:13:02 10° SE
SL-16 R/B 3.4 02:06:09 26° SW 02:08:02 30° W 02:13:29 10° NW
Cosmos 1802 Rocket 3.9 02:02:37 10° N 02:08:48 79° W 02:14:33 12° S
Meteor 1-28 Rocket 3.1 02:07:32 36° SSW 02:08:51 61° W 02:12:32 10° NNW
Meteor 1-29 4.2 02:10:10 10° NNW 02:12:59 25° WNW 02:13:24 24° W
Cosmos 1626 3.2 02:13:44 13° SSE 02:16:46 42° E 02:20:16 10° NNE
Cosmos 2100 Rocket 4.2 02:11:22 10° NNW 02:17:23 51° W 02:21:52 18° SSW
Cosmos 2227 Rocket 2.8 02:13:39 10° NNW 02:19:16 60° ENE 02:24:49 10° SE
CZ-2C R/B 4.4 02:15:58 10° NE 02:20:14 27° E 02:24:32 10° SSE
GP-B 3.2 02:15:50 10° N 02:20:18 79° E 02:24:16 13° S
Helios 1B rocket 4.4 02:18:57 10° NNW 02:21:32 16° WNW 02:22:48 14° W
Cosmos 1953 2.2 02:17:47 10° N 02:21:47 83° W 02:25:13 13° S
Cosmos 2297 Rocket 2.3 02:17:47 10° NNW 02:23:29 82° ENE 02:29:10 10° SSE
ISS -1.9 02:21:16 11° WNW 02:24:02 28° N 02:27:01 10° NE
Gbstr 26 Del rocket 4.4 02:19:36 10° WNW 02:24:14 24° SW 02:26:08 20° SSW
Cosmos 2123 Rocket 3.9 02:23:04 16° SSW 02:28:10 77° W 02:34:23 10° N
ADEOS Rocket 3.6 02:22:42 10° S 02:29:40 57° W 02:37:14 10° NNW
Spot 1 4.5 02:30:01 16° S 02:33:20 47° W 02:37:54 10° NNW
Cosmos 371 Rocket 3.3 02:30:01 18° SSW 02:33:41 86° ESE 02:38:36 10° NNE
OAO 3 Rocket 4.5 02:33:08 20° SSW 02:34:30 23° S 02:38:21 10° SE
Cosmos 1025 Rocket 3.0 02:31:16 15° S 02:34:45 87° W 02:39:08 10° N
Cosmos 1544 Rocket 3.5 02:30:30 10° N 02:34:53 83° W 02:39:16 10° S
IRS-P3 4.1 02:29:35 10° NNE 02:34:58 83° WNW 02:39:42 13° SSW
Cosmos 332 Rocket 4.4 02:30:39 11° S 02:35:14 56° ESE 02:40:02 10° NNE
CZ-2D R/B 3.9 02:33:00 10° NNW 02:36:38 19° WNW 02:39:40 12° W
ATLAS CENTAUR R/B 3.5 02:39:09 10° WNW 02:41:20 15° NW 02:43:34 10° N
CZ-2C R/B 2.8 02:40:56 13° S 02:41:22 13° S 02:42:56 10° SE
Lacrosse 4 Rocket 3.7 02:38:40 10° SSE 02:42:09 22° ESE 02:45:36 10° ENE
[s.n.48335] 3.0 02:41:23 23° W 02:42:29 35° SW 02:44:54 10° SSE
[s.n.48334] 3.0 02:41:26 23° W 02:42:32 35° SW 02:44:58 10° SSE
[s.n.48333] 3.0 02:41:41 25° W 02:42:36 34° SW 02:44:59 10° SSE
[s.n.48332] 3.0 02:41:30 23° W 02:42:37 35° SW 02:45:02 10° SSE
[s.n.48331] 3.0 02:41:39 23° W 02:42:45 34° SW 02:45:10 10° SSE
[s.n.48330] 3.0 02:41:54 25° W 02:42:49 34° SW 02:45:12 10° SSE
[s.n.48329] 3.0 02:41:48 23° W 02:42:54 34° SW 02:45:19 10° SSE
[s.n.48328] 3.0 02:42:01 25° W 02:42:57 34° SW 02:45:20 10° SSE
[s.n.48327] 3.0 02:42:04 25° W 02:43:00 34° SW 02:45:23 10° SSE
[s.n.48326] 3.0 02:42:01 23° W 02:43:05 34° SW 02:45:29 10° SSE
ARIANE 5 R/B 2.5 02:39:19 10° NNE 02:44:32 86° WNW 02:49:39 10° SSW
[s.n.48324] 3.1 02:44:12 21° W 02:45:21 32° SW 02:47:44 10° SSE
[s.n.48325] 3.1 02:44:49 20° W 02:46:06 32° SW 02:48:30 10° SSE
Cosmos 1455 Rocket 3.6 02:42:05 10° NNW 02:46:06 38° W 02:49:31 13° SSW
[s.n.48323] 3.1 02:45:05 21° W 02:46:13 31° SW 02:48:34 10° SSE
[s.n.48321] 3.1 02:45:17 21° W 02:46:24 31° SW 02:48:45 10° SSE
[s.n.48320] 3.1 02:45:18 21° W 02:46:27 31° SW 02:48:48 10° SSE
[s.n.48322] 3.1 02:45:12 20° W 02:46:30 32° SW 02:48:53 10° SSE
[s.n.48318] 3.1 02:45:26 21° W 02:46:32 31° SW 02:48:53 10° SSE
[s.n.48319] 3.1 02:45:26 21° W 02:46:32 31° SW 02:48:53 10° SSE
[s.n.48317] 3.1 02:45:35 21° W 02:46:42 31° SW 02:49:02 10° SSE
[s.n.48316] 3.1 02:45:38 21° W 02:46:45 31° SW 02:49:06 10° SSE
[s.n.48315] 3.1 02:45:44 21° W 02:46:51 31° SW 02:49:11 10° SSE
[s.n.48314] 3.1 02:45:46 21° W 02:46:55 31° SW 02:49:16 10° SSE
[s.n.48313] 3.1 02:45:52 21° W 02:47:00 31° SW 02:49:21 10° SSE
[s.n.48312] 3.1 02:45:56 21° W 02:47:04 31° SW 02:49:23 10° SSE
[s.n.48311] 3.1 02:46:00 21° W 02:47:08 31° SW 02:49:28 10° SSE
[s.n.48310] 3.1 02:45:50 19° W 02:47:11 31° SW 02:49:35 10° SSE
[s.n.48309] 3.1 02:45:54 19° W 02:47:16 31° SW 02:49:39 10° SSE
[s.n.48308] 3.1 02:45:59 19° W 02:47:20 31° SW 02:49:43 10° SSE
[s.n.48307] 3.1 02:46:14 20° W 02:47:24 30° SW 02:49:45 10° SSE
[s.n.48306] 3.1 02:46:14 20° W 02:47:28 31° SW 02:49:50 10° SSE
[s.n.48305] 3.2 02:46:19 20° W 02:47:33 31° SW 02:49:55 10° SSE
[s.n.48304] 3.1 02:46:25 20° W 02:47:37 30° SW 02:49:57 10° SSE
[s.n.48303] 3.2 02:46:26 19° W 02:47:42 30° SW 02:50:04 10° SSE
[s.n.48302] 3.2 02:46:29 19° W 02:47:45 30° SW 02:50:07 10° SSE
[s.n.48301] 3.2 02:46:39 20° W 02:47:51 30° SW 02:50:11 10° SSE
[s.n.48300] 3.2 02:46:40 20° W 02:47:52 30° SW 02:50:13 10° SSE
[s.n.48299] 3.2 02:46:47 20° W 02:48:00 30° SW 02:50:21 10° SSE
[s.n.48298] 3.2 02:46:47 19° W 02:48:04 30° SW 02:50:25 10° SSE
[s.n.48297] 3.2 02:46:44 18° W 02:48:09 30° SW 02:50:32 10° SSE
[s.n.48296] 3.2 02:46:48 18° W 02:48:13 30° SW 02:50:36 10° SSE
[s.n.48295] 3.2 02:47:03 19° W 02:48:17 30° SW 02:50:38 10° SSE
[s.n.48294] 3.2 02:47:08 20° W 02:48:22 30° SW 02:50:42 10° SSE
[s.n.48293] 3.2 02:47:12 19° W 02:48:25 30° SW 02:50:46 10° SSE
[s.n.48292] 3.2 02:47:00 17° W 02:48:29 30° SW 02:50:52 10° SSE
[s.n.48291] 3.2 02:47:20 19° W 02:48:35 30° SW 02:50:55 10° SSE
CZ-2D R/B 3.7 02:44:13 10° NNE 02:48:35 80° ESE 02:52:59 10° S
[s.n.48290] 3.2 02:47:22 19° W 02:48:37 30° SW 02:50:57 10° SSE
CZ-4C R/B 4.4 02:45:49 16° SSW 02:48:40 30° W 02:52:30 10° NW
[s.n.48289] 3.2 02:47:28 19° W 02:48:43 30° SW 02:51:03 10° SSE
[s.n.48288] 3.2 02:47:32 19° W 02:48:48 30° SW 02:51:08 10° SSE
[s.n.48286] 3.2 02:47:33 19° W 02:48:49 30° SW 02:51:09 10° SSE
[s.n.48287] 3.2 02:47:36 19° W 02:48:51 29° SW 02:51:11 10° SSE
[s.n.48285] 3.2 02:47:45 19° W 02:49:01 29° SW 02:51:21 10° SSE
[s.n.48284] 3.2 02:47:47 19° W 02:49:04 29° SW 02:51:24 10° SSE
[s.n.48283] 3.2 02:47:54 19° W 02:49:10 29° SW 02:51:30 10° SSE
[s.n.48282] 3.2 02:47:56 19° W 02:49:14 29° SW 02:51:34 10° SSE
[s.n.48281] 3.2 02:47:49 17° W 02:49:20 30° SW 02:51:42 10° SSE
[s.n.48280] 3.2 02:48:06 19° W 02:49:23 29° SW 02:51:43 10° SSE
[s.n.48279] 3.2 02:48:10 19° W 02:49:27 29° SW 02:51:47 10° SSE
[s.n.48278] 3.2 02:48:12 18° W 02:49:32 29° SW 02:51:52 10° SSE
[s.n.48277] 3.2 02:48:18 19° W 02:49:37 29° SW 02:51:56 10° SSE
[s.n.48276] 3.2 02:48:16 17° W 02:49:43 29° SW 02:52:05 10° SSE
Cosmos 1536 Rocket 3.6 02:47:05 10° S 02:51:26 80° E 02:55:51 10° N
Cosmos 2219 3.2 02:48:49 10° NNW 02:54:29 67° WSW 03:00:09 10° SSE
CZ-2C R/B 3.6 02:55:00 10° NNE 02:58:52 52° E 03:02:47 10° S
Cosmos 1674 3.7 02:56:38 15° SW 02:59:08 30° WNW 03:02:33 10° NNW
Cosmos 1140 Rocket 3.9 02:54:47 10° NNW 02:59:59 69° ENE 03:05:11 10° SSE
Cosmos 1315 Rocket 4.3 02:59:36 10° NW 03:02:25 19° W 03:04:34 13° SW
USA 129 2.2 03:02:00 10° S 03:04:21 42° WSW 03:06:31 10° NNW
IDEFIX/ARIANE 42P 3.4 03:04:40 10° N 03:09:22 34° WNW 03:14:03 10° SW
Timation 2 Rocket 4.0 03:05:30 10° NW 03:11:17 52° WSW 03:17:04 10° S
Cosmos 1300 2.6 03:08:28 10° N 03:12:18 80° W 03:16:06 10° S
ADEOS II 3.8 03:09:35 10° NNW 03:13:01 18° WNW 03:16:27 10° W
TSX-5 3.5 03:10:52 10° NW 03:14:09 60° WSW 03:18:01 10° SSE
Cosmos 614 Rocket 4.4 03:12:10 10° NW 03:16:53 40° WSW 03:21:36 10° S
USA 276 2.1 03:14:03 11° WSW 03:17:02 82° SSE 03:20:12 10° ENE
Cosmos 2360 4.4 03:11:27 10° SSW 03:17:11 83° ESE 03:22:57 10° NNE
Cosmos 2228 3.5 03:16:10 10° N 03:20:24 65° E 03:24:39 10° SSE
Cosmos 1624 Rocket 4.3 03:15:28 10° SSW 03:20:44 75° ESE 03:26:05 10° NNE
Tianhe-1 1.8 03:18:53 10° WSW 03:21:49 36° S 03:24:43 10° ESE
BREEZE-M DEB (TANK) 1.6 03:20:02 10° SW 03:23:05 61° SSE 03:25:16 10° ENE
Cosmos 407 Rocket 3.6 03:19:00 10° NNW 03:24:18 66° WSW 03:29:35 10° S
SL-14 R/B 3.7 03:20:48 10° SSW 03:24:30 43° WNW 03:28:15 10° N
Cosmos 1656 4.4 03:21:09 10° SW 03:26:12 39° NW 03:31:21 10° NNE
SL-08 R/B 4.2 03:23:44 10° SSW 03:27:54 30° W 03:32:01 10° NW
Spot 4 Rocket 4.2 03:23:08 10° N 03:28:12 57° WNW 03:33:13 10° SSW
Cosmos 2263 Rocket 3.8 03:24:08 10° NNW 03:29:27 40° NE 03:34:45 10° SE
Lacrosse 5 2.7 03:25:03 10° WSW 03:29:54 43° NNW 03:34:46 10° NE
Cosmos 2285 Rocket 4.1 03:26:55 10° SSW 03:33:18 89° NW 03:39:46 10° NNE
